Terug naar catalogus

COSMOS 2499 DEB

ActiefPO
NORAD 49931·DEBRIS·🇷🇺 Russia

Gelanceerd May 23, 2014 vanaf Plesetsk Cosmodrome

Loading…

Volgende Passages (komende 24 uur)

TLE

VersSource: Space-Track

Epoch: Sep 14, 2026, 13:09 UTC

1 49931U 14028N   26257.54824638  .00002394  00000-0  73697-2 0  9995
2 49931  82.5391 192.8629 0271272  83.1297 280.0590 12.93313603229406

Volg COSMOS 2499 DEB in realtime met AllMySat

Download on the App Store